| time (UTC) | temp F | wind direction | speed MPH | gust MPH | rain 1hr in | rain 24hr in | rain mn in | humidity % | barometer mb |
| 20260507064555 | 51 | 313 | 0.0 | 0.0 | 0.00 | 0.00 | 0.00 | 81 | 1016.4 |
| 20260507064354 | 50 | 324 | 0.0 | 0.0 | 0.00 | 0.00 | 0.00 | 83 | 1016.4 |
| 20260507064046 | 49 | 328 | 0.0 | 0.0 | 0.00 | 0.00 | 0.00 | 84 | 1016.3 |
| 20260507063714 | 50 | 335 | 0.0 | 0.0 | 0.00 | 0.00 | 0.00 | 83 | 1016.4 |
| 20260507063436 | 50 | 323 | 0.0 | 0.0 | 0.00 | 0.00 | 0.00 | 83 | 1016.3 |
| 20260507062055 | 49 | 328 | 0.0 | 0.0 | 0.00 | 0.00 | 0.00 | 84 | 1016.2 |
| 20260507061600 | 49 | 334 | 0.0 | 0.0 | 0.00 | 0.00 | 0.00 | 84 | 1016.3 |
| 20260507061055 | 49 | 348 | 0.0 | 0.0 | 0.00 | 0.00 | 0.00 | 85 | 1016.3 |
| 20260507060555 | 48 | 51 | 0.0 | 0.0 | 0.00 | 0.00 | 0.00 | 85 | 1016.2 |
| 20260507060055 | 48 | 18 | 0.0 | 0.0 | 0.00 | 0.00 | 0.00 | 86 | 1016.1 |
| 20260507055555 | 48 | 30 | 0.0 | 0.0 | 0.00 | 0.00 | 0.00 | 87 | 1016.3 |
| 20260507055056 | 47 | 30 | 0.0 | 0.0 | 0.00 | 0.00 | 0.00 | 88 | 1016.2 |
| 20260507054551 | 47 | 30 | 0.0 | 0.0 | 0.00 | 0.00 | 0.00 | 89 | 1016.1 |
| 20260507054049 | 47 | 30 | 0.0 | 0.0 | 0.00 | 0.00 | 0.00 | 89 | 1016.1 |
| 20260507053549 | 47 | 30 | 0.0 | 0.0 | 0.00 | 0.00 | 0.00 | 90 | 1016.0 |
| 20260507053049 | 46 | 30 | 0.0 | 0.0 | 0.00 | 0.00 | 0.00 | 91 | 1016.1 |
| 20260507052546 | 46 | 30 | 0.0 | 0.0 | 0.00 | 0.00 | 0.00 | 91 | 1016.0 |
| 20260507052308 | 46 | 30 | 0.0 | 0.0 | 0.00 | 0.00 | 0.00 | 91 | 1016.0 |
| 20260507051546 | 45 | 30 | 0.0 | 0.0 | 0.00 | 0.00 | 0.00 | 91 | 1015.9 |
| 20260507051051 | 45 | 30 | 0.0 | 0.0 | 0.00 | 0.00 | 0.00 | 92 | 1015.9 |
| 20260507050550 | 45 | 30 | 0.0 | 0.0 | 0.00 | 0.00 | 0.00 | 92 | 1015.8 |
| 20260507050132 | 44 | 30 | 0.0 | 0.0 | 0.00 | 0.00 | 0.00 | 92 | 1015.7 |
| 20260507050118 | 44 | 30 | 0.0 | 0.0 | 0.00 | 0.00 | 0.00 | 92 | 1015.7 |
| 20260507045044 | 44 | 30 | 0.0 | 0.0 | 0.00 | 0.00 | 0.00 | 91 | 1015.7 |
| 20260507044542 | 44 | 30 | 0.0 | 0.0 | 0.00 | 0.00 | 0.00 | 91 | 1015.7 |
| 20260507044040 | 44 | 30 | 0.0 | 0.0 | 0.00 | 0.00 | 0.00 | 91 | 1015.5 |
| 20260507043537 | 44 | 30 | 0.0 | 0.0 | 0.00 | 0.00 | 0.00 | 91 | 1015.5 |
| 20260507043059 | 44 | 30 | 0.0 | 0.0 | 0.00 | 0.00 | 0.00 | 91 | 1015.5 |
| 20260507042530 | 44 | 30 | 0.0 | 0.0 | 0.00 | 0.00 | 0.00 | 90 | 1015.5 |
| 20260507042028 | 44 | 30 | 0.0 | 0.0 | 0.00 | 0.00 | 0.00 | 90 | 1015.4 |
| 20260507041544 | 44 | 30 | 0.0 | 0.0 | 0.00 | 0.00 | 0.00 | 90 | 1015.5 |
| 20260507041039 | 44 | 30 | 0.0 | 0.0 | 0.00 | 0.00 | 0.00 | 89 | 1015.4 |
| 20260507040525 | 44 | 30 | 0.0 | 0.0 | 0.00 | 0.00 | 0.00 | 89 | 1015.3 |
| 20260507040031 | 44 | 30 | 0.0 | 0.0 | 0.00 | 0.00 | 0.00 | 89 | 1015.3 |
| 20260507035528 | 44 | 30 | 0.0 | 0.0 | 0.00 | 0.00 | 0.00 | 88 | 1015.3 |
| 20260507035021 | 45 | 30 | 0.0 | 0.0 | 0.00 | 0.00 | 0.00 | 88 | 1015.2 |
| 20260507034523 | 45 | 30 | 0.0 | 0.0 | 0.00 | 0.00 | 0.00 | 88 | 1015.2 |
| 20260507034308 | 45 | 30 | 0.0 | 0.0 | 0.00 | 0.00 | 0.00 | 88 | 1015.1 |
| 20260507033516 | 45 | 30 | 0.0 | 0.0 | 0.00 | 0.00 | 0.00 | 88 | 1015.1 |
| 20260507033328 | 46 | 30 | 0.0 | 0.0 | 0.00 | 0.00 | 0.00 | 88 | 1015.1 |
| 20260507032517 | 46 | 30 | 0.0 | 0.0 | 0.00 | 0.00 | 0.00 | 87 | 1015.2 |
| 20260507032028 | 46 | 30 | 0.0 | 0.0 | 0.00 | 0.00 | 0.00 | 88 | 1015.1 |
| 20260507031517 | 46 | 30 | 0.0 | 0.0 | 0.00 | 0.00 | 0.00 | 88 | 1015.1 |
| 20260507031018 | 46 | 30 | 0.0 | 0.0 | 0.00 | 0.00 | 0.00 | 88 | 1015.0 |
| 20260507030520 | 46 | 30 | 0.0 | 0.0 | 0.00 | 0.00 | 0.00 | 88 | 1015.0 |
| 20260507030306 | 46 | 30 | 0.0 | 0.0 | 0.00 | 0.00 | 0.00 | 88 | 1015.0 |
| 20260507025942 | 46 | 30 | 0.0 | 0.0 | 0.00 | 0.00 | 0.00 | 88 | 1015.0 |
| 20260507025937 | 46 | 30 | 0.0 | 0.0 | 0.00 | 0.00 | 0.00 | 88 | 1015.0 |
| 20260507024511 | 46 | 30 | 0.0 | 0.0 | 0.00 | 0.00 | 0.00 | 88 | 1015.0 |
| 20260507024011 | 46 | 30 | 0.0 | 0.0 | 0.00 | 0.00 | 0.00 | 88 | 1015.0 |
| 20260507023511 | 46 | 30 | 0.0 | 0.0 | 0.00 | 0.00 | 0.00 | 88 | 1014.9 |
| 20260507023010 | 46 | 30 | 0.0 | 0.0 | 0.00 | 0.00 | 0.00 | 88 | 1014.9 |
| 20260507022508 | 46 | 30 | 0.0 | 0.0 | 0.00 | 0.00 | 0.00 | 88 | 1014.8 |
| 20260507022007 | 46 | 30 | 0.0 | 0.0 | 0.00 | 0.00 | 0.00 | 88 | 1014.9 |
| 20260507021549 | 46 | 30 | 0.0 | 0.0 | 0.00 | 0.00 | 0.00 | 88 | 1014.8 |
| 20260507021533 | 46 | 30 | 0.0 | 0.0 | 0.00 | 0.00 | 0.00 | 88 | 1014.8 |
| 20260507020505 | 46 | 30 | 0.0 | 0.0 | 0.00 | 0.00 | 0.00 | 88 | 1014.8 |
| 20260507020009 | 46 | 30 | 0.0 | 0.0 | 0.00 | 0.00 | 0.00 | 87 | 1014.8 |
| 20260507015810 | 46 | 30 | 0.0 | 0.0 | 0.00 | 0.00 | 0.00 | 87 | 1014.7 |
| 20260507015252 | 46 | 30 | 0.0 | 0.0 | 0.00 | 0.00 | 0.00 | 88 | 1014.7 |
| 20260507014800 | 46 | 30 | 0.0 | 0.0 | 0.00 | 0.00 | 0.00 | 88 | 1014.6 |
| 20260507014006 | 46 | 30 | 0.0 | 0.0 | 0.00 | 0.00 | 0.00 | 88 | 1014.6 |
| 20260507013504 | 46 | 30 | 0.0 | 0.0 | 0.00 | 0.00 | 0.00 | 88 | 1014.6 |
| 20260507013009 | 46 | 30 | 0.0 | 0.0 | 0.00 | 0.00 | 0.00 | 88 | 1014.6 |
| 20260507012503 | 46 | 30 | 0.0 | 0.0 | 0.00 | 0.00 | 0.00 | 87 | 1014.6 |
| 20260507012004 | 46 | 30 | 0.0 | 0.0 | 0.00 | 0.00 | 0.00 | 87 | 1014.5 |
| 20260507011503 | 46 | 30 | 0.0 | 0.0 | 0.00 | 0.00 | 0.00 | 87 | 1014.6 |
| 20260507011004 | 46 | 30 | 0.0 | 0.0 | 0.00 | 0.00 | 0.00 | 87 | 1014.6 |
| 20260507010502 | 46 | 30 | 0.0 | 0.0 | 0.00 | 0.00 | 0.00 | 87 | 1014.5 |
| 20260507010004 | 46 | 30 | 0.0 | 0.0 | 0.00 | 0.00 | 0.00 | 87 | 1014.5 |
| 20260507005626 | 46 | 30 | 0.0 | 0.0 | 0.00 | 0.00 | 0.00 | 86 | 1014.5 |
| 20260507005604 | 46 | 30 | 0.0 | 0.0 | 0.00 | 0.00 | 0.00 | 87 | 1014.5 |
| 20260507004504 | 46 | 30 | 0.0 | 0.0 | 0.00 | 0.00 | 0.00 | 86 | 1014.6 |
| 20260507004004 | 46 | 30 | 0.0 | 0.0 | 0.00 | 0.00 | 0.00 | 86 | 1014.5 |
| 20260507003504 | 46 | 30 | 0.0 | 0.0 | 0.00 | 0.00 | 0.00 | 86 | 1014.5 |
| 20260507003003 | 46 | 30 | 0.0 | 0.0 | 0.00 | 0.00 | 0.00 | 86 | 1014.5 |
| 20260507002503 | 47 | 30 | 0.0 | 0.0 | 0.00 | 0.00 | 0.00 | 86 | 1014.5 |
| 20260507002004 | 47 | 30 | 0.0 | 0.0 | 0.00 | 0.00 | 0.00 | 85 | 1014.5 |
| 20260507001503 | 47 | 30 | 0.0 | 0.0 | 0.00 | 0.00 | 0.00 | 85 | 1014.4 |
| 20260507001004 | 47 | 30 | 0.0 | 0.0 | 0.00 | 0.00 | 0.00 | 85 | 1014.4 |
| 20260507000504 | 47 | 30 | 0.0 | 0.0 | 0.00 | 0.00 | 0.00 | 85 | 1014.4 |
| 20260507000005 | 47 | 30 | 0.0 | 0.0 | 0.00 | 0.00 | 0.00 | 85 | 1014.4 |
| 20260506235503 | 47 | 30 | 0.0 | 0.0 | 0.00 | 0.00 | 0.00 | 85 | 1014.6 |
| 20260506235317 | 47 | 30 | 0.0 | 0.0 | 0.00 | 0.00 | 0.00 | 84 | 1014.5 |
| 20260506234505 | 47 | 30 | 0.0 | 0.0 | 0.00 | 0.00 | 0.00 | 84 | 1014.6 |
| 20260506234005 | 47 | 30 | 0.0 | 0.0 | 0.00 | 0.00 | 0.00 | 84 | 1014.5 |
| 20260506233503 | 48 | 30 | 0.0 | 0.0 | 0.00 | 0.00 | 0.00 | 84 | 1014.4 |
| 20260506233004 | 48 | 30 | 0.0 | 0.0 | 0.00 | 0.00 | 0.00 | 83 | 1014.5 |
| 20260506232504 | 48 | 30 | 0.0 | 0.0 | 0.00 | 0.00 | 0.00 | 83 | 1014.6 |
| 20260506232005 | 48 | 30 | 0.0 | 0.0 | 0.00 | 0.00 | 0.00 | 83 | 1014.5 |
| 20260506231505 | 48 | 30 | 0.0 | 0.0 | 0.00 | 0.00 | 0.00 | 83 | 1014.4 |
| 20260506231434 | 49 | 30 | 0.0 | 0.0 | 0.00 | 0.00 | 0.00 | 82 | 1014.4 |
| 20260506231038 | 48 | 30 | 0.0 | 0.0 | 0.00 | 0.00 | 0.00 | 82 | 1014.4 |
| 20260506230006 | 49 | 30 | 0.0 | 0.0 | 0.00 | 0.00 | 0.00 | 82 | 1014.4 |
| 20260506225533 | 49 | 30 | 0.0 | 0.0 | 0.00 | 0.00 | 0.00 | 81 | 1014.3 |
| 20260506225525 | 49 | 30 | 0.0 | 0.0 | 0.00 | 0.00 | 0.00 | 82 | 1014.3 |
| 20260506224746 | 49 | 68 | 0.0 | 0.0 | 0.00 | 0.00 | 0.00 | 82 | 1014.3 |
| 20260506224006 | 49 | 68 | 0.0 | 0.0 | 0.00 | 0.00 | 0.00 | 82 | 1014.3 |
| 20260506223529 | 49 | 68 | 0.0 | 0.0 | 0.00 | 0.00 | 0.00 | 81 | 1014.2 |
| 20260506223308 | 50 | 318 | 0.0 | 0.0 | 0.00 | 0.00 | 0.00 | 82 | 1014.1 |
| 20260506222503 | 50 | 315 | 0.0 | 0.0 | 0.00 | 0.00 | 0.00 | 81 | 1014.0 |
| 20260506222008 | 50 | 8 | 0.0 | 0.0 | 0.00 | 0.00 | 0.00 | 81 | 1014.1 |
| 20260506221504 | 50 | 292 | 0.0 | 0.0 | 0.00 | 0.00 | 0.00 | 81 | 1014.0 |
| 20260506221004 | 50 | 292 | 0.0 | 0.0 | 0.00 | 0.00 | 0.00 | 81 | 1014.0 |
| 20260506220504 | 50 | 297 | 0.0 | 0.0 | 0.00 | 0.00 | 0.00 | 80 | 1013.8 |
| 20260506220054 | 50 | 305 | 0.0 | 0.0 | 0.00 | 0.00 | 0.00 | 80 | 1013.9 |
| 20260506215502 | 51 | 294 | 0.0 | 0.0 | 0.00 | 0.00 | 0.00 | 80 | 1013.6 |
| 20260506215006 | 51 | 274 | 0.0 | 0.0 | 0.00 | 0.00 | 0.00 | 79 | 1013.7 |
| 20260506214504 | 51 | 274 | 0.0 | 0.0 | 0.00 | 0.00 | 0.00 | 79 | 1013.7 |
| 20260506214004 | 51 | 274 | 0.0 | 0.0 | 0.00 | 0.00 | 0.00 | 78 | 1013.7 |
| 20260506213459 | 51 | 263 | 0.0 | 0.0 | 0.00 | 0.00 | 0.00 | 78 | 1013.5 |
| 20260506212959 | 51 | 295 | 0.0 | 0.0 | 0.00 | 0.00 | 0.00 | 77 | 1013.6 |
| 20260506212502 | 51 | 295 | 0.0 | 0.0 | 0.00 | 0.00 | 0.00 | 77 | 1013.6 |
| 20260506211959 | 51 | 295 | 0.0 | 0.0 | 0.00 | 0.00 | 0.00 | 77 | 1013.5 |
| 20260506211517 | 51 | 295 | 0.0 | 0.0 | 0.00 | 0.00 | 0.00 | 76 | 1013.7 |
| 20260506210959 | 51 | 295 | 0.0 | 0.0 | 0.00 | 0.00 | 0.00 | 76 | 1013.4 |
| 20260506210458 | 52 | 295 | 0.0 | 0.0 | 0.00 | 0.00 | 0.00 | 76 | 1013.4 |
| 20260506205959 | 52 | 295 | 0.0 | 0.0 | 0.00 | 0.00 | 0.00 | 76 | 1013.4 |
| 20260506205457 | 52 | 295 | 0.0 | 0.0 | 0.00 | 0.00 | 0.00 | 76 | 1013.4 |
| 20260506204955 | 52 | 295 | 0.0 | 0.0 | 0.00 | 0.00 | 0.00 | 75 | 1013.2 |
| 20260506204545 | 53 | 295 | 0.0 | 0.0 | 0.00 | 0.00 | 0.00 | 75 | 1013.1 |
| 20260506204530 | 52 | 295 | 0.0 | 0.0 | 0.00 | 0.00 | 0.00 | 75 | 1013.2 |
| 20260506203443 | 53 | 285 | 0.0 | 0.0 | 0.00 | 0.00 | 0.00 | 75 | 1013.1 |
| 20260506203231 | 53 | 305 | 0.0 | 0.0 | 0.00 | 0.00 | 0.00 | 75 | 1013.1 |
| 20260506202440 | 53 | 295 | 0.0 | 0.0 | 0.00 | 0.00 | 0.00 | 74 | 1013.1 |
| 20260506201935 | 53 | 308 | 0.0 | 0.0 | 0.00 | 0.00 | 0.00 | 74 | 1013.1 |
| 20260506201436 | 53 | 268 | 0.0 | 0.0 | 0.00 | 0.00 | 0.00 | 74 | 1013.1 |
| 20260506200935 | 53 | 302 | 0.0 | 0.0 | 0.00 | 0.00 | 0.00 | 73 | 1013.1 |
| 20260506200434 | 53 | 277 | 0.0 | 1.0 | 0.00 | 0.00 | 0.00 | 73 | 1013.1 |
| 20260506195935 | 53 | 308 | 0.0 | 2.0 | 0.00 | 0.00 | 0.00 | 72 | 1013.1 |
| 20260506195436 | 53 | 289 | 0.0 | 2.0 | 0.00 | 0.00 | 0.00 | 71 | 1013.0 |
| 20260506194935 | 54 | 289 | 0.0 | 1.0 | 0.00 | 0.00 | 0.00 | 71 | 1012.9 |
| 20260506194433 | 54 | 289 | 0.0 | 2.0 | 0.00 | 0.00 | 0.00 | 71 | 1012.9 |
| 20260506193932 | 54 | 289 | 0.0 | 2.0 | 0.00 | 0.00 | 0.00 | 71 | 1012.8 |
| 20260506193433 | 54 | 307 | 0.0 | 2.0 | 0.00 | 0.00 | 0.00 | 70 | 1012.8 |
| 20260506192933 | 54 | 319 | 0.0 | 2.0 | 0.00 | 0.00 | 0.00 | 70 | 1012.6 |
| 20260506192730 | 54 | 317 | 0.0 | 3.0 | 0.00 | 0.00 | 0.00 | 70 | 1012.6 |
| 20260506191931 | 54 | 285 | 0.0 | 3.0 | 0.00 | 0.00 | 0.00 | 70 | 1012.6 |
| 20260506191431 | 54 | 346 | 0.0 | 3.0 | 0.00 | 0.00 | 0.00 | 70 | 1012.4 |
| 20260506190930 | 54 | 39 | 0.0 | 3.0 | 0.00 | 0.00 | 0.00 | 71 | 1012.4 |
| 20260506190431 | 54 | 295 | 0.0 | 3.0 | 0.00 | 0.00 | 0.00 | 71 | 1012.3 |
| 20260506185928 | 54 | 4 | 0.0 | 3.0 | 0.00 | 0.00 | 0.00 | 71 | 1012.4 |
| 20260506185427 | 54 | 303 | 0.0 | 3.0 | 0.00 | 0.00 | 0.00 | 71 | 1012.2 |
| 20260506184933 | 55 | 97 | 1.0 | 3.0 | 0.00 | 0.00 | 0.00 | 72 | 1012.2 |
| 20260506184427 | 55 | 322 | 1.0 | 4.0 | 0.00 | 0.00 | 0.00 | 72 | 1012.1 |
| 20260506184247 | 55 | 303 | 1.0 | 4.0 | 0.00 | 0.00 | 0.00 | 72 | 1012.0 |
| 20260506183733 | 55 | 70 | 1.0 | 4.0 | 0.00 | 0.00 | 0.00 | 72 | 1012.0 |
| 20260506182923 | 55 | 287 | 1.0 | 4.0 | 0.00 | 0.00 | 0.00 | 72 | 1012.0 |
| 20260506182733 | 55 | 357 | 1.0 | 4.0 | 0.00 | 0.00 | 0.00 | 72 | 1012.0 |
| 20260506181924 | 55 | 276 | 1.0 | 3.0 | 0.00 | 0.00 | 0.00 | 72 | 1011.9 |
| 20260506181422 | 55 | 295 | 2.0 | 4.0 | 0.00 | 0.00 | 0.00 | 72 | 1011.8 |
| 20260506180921 | 55 | 304 | 1.0 | 4.0 | 0.00 | 0.00 | 0.00 | 71 | 1011.7 |
| 20260506180420 | 55 | 312 | 1.0 | 7.0 | 0.00 | 0.00 | 0.00 | 71 | 1011.7 |
| 20260506175920 | 56 | 316 | 1.0 | 7.0 | 0.00 | 0.00 | 0.00 | 71 | 1011.7 |
| 20260506175544 | 56 | 290 | 1.0 | 4.0 | 0.00 | 0.00 | 0.00 | 67 | 1011.6 |
| 20260506175525 | 56 | 299 | 1.0 | 4.0 | 0.00 | 0.00 | 0.00 | 69 | 1011.6 |
| 20260506174420 | 56 | 300 | 0.0 | 3.0 | 0.00 | 0.00 | 0.00 | 64 | 1011.5 |
| 20260506173923 | 56 | 308 | 0.0 | 3.0 | 0.00 | 0.00 | 0.00 | 64 | 1011.4 |
| 20260506173419 | 56 | 58 | 0.0 | 3.0 | 0.00 | 0.00 | 0.00 | 63 | 1011.3 |
| 20260506172917 | 56 | 67 | 0.0 | 3.0 | 0.00 | 0.00 | 0.00 | 62 | 1011.3 |
| 20260506172418 | 56 | 28 | 0.0 | 3.0 | 0.00 | 0.00 | 0.00 | 62 | 1011.3 |
| 20260506171916 | 56 | 309 | 0.0 | 2.0 | 0.00 | 0.00 | 0.00 | 61 | 1011.2 |
| 20260506171416 | 56 | 309 | 1.0 | 3.0 | 0.00 | 0.00 | 0.00 | 61 | 1011.2 |
| 20260506170916 | 56 | 30 | 1.0 | 4.0 | 0.00 | 0.00 | 0.00 | 61 | 1011.2 |
| 20260506170417 | 56 | 57 | 1.0 | 4.0 | 0.00 | 0.00 | 0.00 | 61 | 1011.2 |
| 20260506165917 | 56 | 72 | 1.0 | 5.0 | 0.00 | 0.00 | 0.00 | 61 | 1011.2 |
| 20260506165425 | 56 | 57 | 1.0 | 5.0 | 0.00 | 0.00 | 0.00 | 61 | 1011.1 |
| 20260506164928 | 56 | 311 | 1.0 | 5.0 | 0.00 | 0.00 | 0.00 | 61 | 1011.1 |
| 20260506164416 | 56 | 56 | 1.0 | 4.0 | 0.00 | 0.00 | 0.00 | 62 | 1011.2 |
| 20260506163916 | 56 | 297 | 1.0 | 4.0 | 0.00 | 0.00 | 0.00 | 62 | 1011.2 |
| 20260506163416 | 56 | 285 | 1.0 | 4.0 | 0.00 | 0.00 | 0.00 | 61 | 1011.2 |
| 20260506162925 | 56 | 280 | 1.0 | 4.0 | 0.00 | 0.00 | 0.00 | 61 | 1011.2 |
| 20260506162414 | 57 | 80 | 2.0 | 7.0 | 0.00 | 0.00 | 0.00 | 62 | 1011.1 |
| 20260506161915 | 57 | 60 | 2.0 | 7.0 | 0.00 | 0.00 | 0.00 | 61 | 1011.1 |
| 20260506161711 | 57 | 297 | 2.0 | 5.0 | 0.00 | 0.00 | 0.00 | 60 | 1011.1 |
| 20260506160914 | 57 | 35 | 1.0 | 4.0 | 0.00 | 0.00 | 0.00 | 59 | 1011.0 |
| 20260506160414 | 57 | 62 | 1.0 | 8.0 | 0.00 | 0.00 | 0.00 | 59 | 1011.0 |
| 20260506155915 | 58 | 55 | 1.0 | 8.0 | 0.00 | 0.00 | 0.00 | 58 | 1011.0 |
| 20260506155723 | 58 | 56 | 0.0 | 3.0 | 0.00 | 0.00 | 0.00 | 58 | 1011.1 |
| 20260506154915 | 58 | 39 | 1.0 | 3.0 | 0.00 | 0.00 | 0.00 | 57 | 1011.0 |
| 20260506154415 | 58 | 66 | 1.0 | 6.0 | 0.00 | 0.00 | 0.00 | 57 | 1010.9 |
| 20260506153912 | 58 | 312 | 0.0 | 6.0 | 0.00 | 0.00 | 0.00 | 58 | 1011.0 |
| 20260506153413 | 58 | 105 | 1.0 | 6.0 | 0.00 | 0.00 | 0.00 | 57 | 1011.0 |
| 20260506152913 | 58 | 282 | 1.0 | 6.0 | 0.00 | 0.00 | 0.00 | 56 | 1010.9 |
| 20260506152412 | 58 | 305 | 1.0 | 5.0 | 0.00 | 0.00 | 0.00 | 55 | 1010.9 |
| 20260506152020 | 58 | 13 | 1.0 | 4.0 | 0.00 | 0.00 | 0.00 | 55 | 1010.9 |
| 20260506151946 | 58 | 332 | 0.0 | 4.0 | 0.00 | 0.00 | 0.00 | 56 | 1010.9 |
| 20260506150913 | 58 | 68 | 1.0 | 4.0 | 0.00 | 0.00 | 0.00 | 55 | 1010.9 |
| 20260506150410 | 58 | 335 | 0.0 | 3.0 | 0.00 | 0.00 | 0.00 | 54 | 1010.9 |
| 20260506145910 | 58 | 96 | 0.0 | 2.0 | 0.00 | 0.00 | 0.00 | 56 | 1010.9 |
| 20260506145703 | 58 | 89 | 1.0 | 4.0 | 0.00 | 0.00 | 0.00 | 57 | 1010.8 |
| 20260506144910 | 57 | 76 | 2.0 | 4.0 | 0.00 | 0.00 | 0.00 | 56 | 1010.9 |
| 20260506144719 | 57 | 95 | 2.0 | 9.0 | 0.00 | 0.00 | 0.00 | 55 | 1010.8 |
| 20260506143910 | 58 | 59 | 2.0 | 9.0 | 0.00 | 0.00 | 0.00 | 55 | 1010.8 |
| 20260506143410 | 58 | 87 | 2.0 | 10.0 | 0.00 | 0.00 | 0.00 | 55 | 1010.8 |
| 20260506143211 | 58 | 110 | 2.0 | 10.0 | 0.00 | 0.00 | 0.00 | 54 | 1010.9 |
| 20260506142413 | 58 | 62 | 2.0 | 9.0 | 0.00 | 0.00 | 0.00 | 54 | 1010.8 |
| 20260506141925 | 58 | 45 | 3.0 | 8.0 | 0.00 | 0.00 | 0.00 | 54 | 1010.9 |
| 20260506141406 | 58 | 87 | 3.0 | 8.0 | 0.00 | 0.00 | 0.00 | 54 | 1010.8 |
| 20260506141212 | 58 | 90 | 2.0 | 8.0 | 0.00 | 0.00 | 0.00 | 53 | 1010.9 |
| 20260506140405 | 58 | 89 | 3.0 | 8.0 | 0.00 | 0.00 | 0.00 | 53 | 1010.8 |
| 20260506135906 | 58 | 64 | 2.0 | 6.0 | 0.00 | 0.00 | 0.00 | 52 | 1010.8 |
| 20260506135404 | 58 | 20 | 2.0 | 8.0 | 0.00 | 0.00 | 0.00 | 52 | 1010.7 |
| 20260506134906 | 58 | 86 | 3.0 | 8.0 | 0.00 | 0.00 | 0.00 | 52 | 1010.8 |
| 20260506134403 | 58 | 290 | 3.0 | 9.0 | 0.00 | 0.00 | 0.00 | 53 | 1010.7 |
| 20260506133907 | 58 | 76 | 3.0 | 9.0 | 0.00 | 0.00 | 0.00 | 50 | 1010.6 |
| 20260506133402 | 58 | 39 | 3.0 | 8.0 | 0.00 | 0.00 | 0.00 | 52 | 1010.6 |
| 20260506132906 | 58 | 48 | 3.0 | 8.0 | 0.00 | 0.00 | 0.00 | 51 | 1010.7 |
| 20260506132402 | 58 | 76 | 2.0 | 8.0 | 0.00 | 0.00 | 0.00 | 51 | 1010.7 |
| 20260506131859 | 58 | 66 | 2.0 | 7.0 | 0.00 | 0.00 | 0.00 | 51 | 1010.8 |
| 20260506131655 | 58 | 91 | 2.0 | 7.0 | 0.00 | 0.00 | 0.00 | 52 | 1010.7 |
| 20260506130859 | 58 | 47 | 2.0 | 5.0 | 0.00 | 0.00 | 0.00 | 53 | 1010.5 |
| 20260506130357 | 58 | 126 | 2.0 | 13.0 | 0.00 | 0.00 | 0.00 | 51 | 1010.6 |
| 20260506125855 | 58 | 14 | 3.0 | 13.0 | 0.00 | 0.00 | 0.00 | 51 | 1010.6 |
| 20260506125357 | 58 | 327 | 2.0 | 8.0 | 0.00 | 0.00 | 0.00 | 51 | 1010.6 |
| 20260506124857 | 58 | 66 | 2.0 | 8.0 | 0.00 | 0.00 | 0.00 | 53 | 1010.5 |
| 20260506124355 | 58 | 81 | 2.0 | 8.0 | 0.00 | 0.00 | 0.00 | 53 | 1010.6 |
| 20260506123908 | 58 | 301 | 2.0 | 8.0 | 0.00 | 0.00 | 0.00 | 52 | 1010.6 |
| 20260506123355 | 58 | 338 | 2.0 | 6.0 | 0.00 | 0.00 | 0.00 | 52 | 1010.6 |
| 20260506122902 | 58 | 73 | 1.0 | 4.0 | 0.00 | 0.00 | 0.00 | 53 | 1010.7 |
| 20260506122356 | 58 | 292 | 1.0 | 4.0 | 0.00 | 0.00 | 0.00 | 53 | 1010.6 |
| 20260506121855 | 58 | 72 | 2.0 | 6.0 | 0.00 | 0.00 | 0.00 | 54 | 1010.6 |
| 20260506121357 | 58 | 68 | 2.0 | 6.0 | 0.00 | 0.00 | 0.00 | 53 | 1010.7 |
| 20260506121148 | 58 | 301 | 2.0 | 8.0 | 0.00 | 0.00 | 0.00 | 55 | 1010.6 |
| 20260506120356 | 58 | 322 | 2.0 | 8.0 | 0.00 | 0.00 | 0.00 | 54 | 1010.5 |
| 20260506115855 | 58 | 41 | 2.0 | 8.0 | 0.00 | 0.00 | 0.00 | 54 | 1010.6 |
| 20260506115354 | 58 | 81 | 2.0 | 8.0 | 0.00 | 0.00 | 0.00 | 53 | 1010.5 |
| 20260506115206 | 58 | 70 | 2.0 | 7.0 | 0.00 | 0.00 | 0.00 | 57 | 1010.5 |
| 20260506114351 | 58 | 68 | 2.0 | 8.0 | 0.00 | 0.00 | 0.00 | 55 | 1010.6 |
| 20260506113847 | 58 | 47 | 2.0 | 8.0 | 0.00 | 0.00 | 0.00 | 55 | 1010.6 |
| 20260506113338 | 58 | 84 | 2.0 | 7.0 | 0.00 | 0.00 | 0.00 | 56 | 1010.5 |
| 20260506112842 | 58 | 70 | 2.0 | 7.0 | 0.00 | 0.00 | 0.00 | 57 | 1010.4 |
| 20260506112334 | 57 | 73 | 3.0 | 7.0 | 0.00 | 0.00 | 0.00 | 56 | 1010.4 |
| 20260506111833 | 57 | 95 | 3.0 | 7.0 | 0.00 | 0.00 | 0.00 | 54 | 1010.4 |
| 20260506111335 | 58 | 110 | 2.0 | 6.0 | 0.00 | 0.00 | 0.00 | 54 | 1010.4 |
| 20260506111131 | 57 | 293 | 1.0 | 5.0 | 0.00 | 0.00 | 0.00 | 57 | 1010.4 |
| 20260506110340 | 57 | 71 | 2.0 | 7.0 | 0.00 | 0.00 | 0.00 | 58 | 1010.3 |
| 20260506105834 | 57 | 231 | 2.0 | 7.0 | 0.00 | 0.00 | 0.00 | 59 | 1010.3 |
| 20260506105334 | 57 | 97 | 1.0 | 7.0 | 0.00 | 0.00 | 0.00 | 62 | 1010.3 |
| 20260506105139 | 56 | 58 | 2.0 | 7.0 | 0.00 | 0.00 | 0.00 | 61 | 1010.4 |
| 20260506104334 | 57 | 85 | 1.0 | 4.0 | 0.00 | 0.00 | 0.00 | 63 | 1010.3 |
| 20260506103834 | 57 | 6 | 1.0 | 4.0 | 0.00 | 0.00 | 0.00 | 64 | 1010.3 |
| 20260506103334 | 57 | 297 | 1.0 | 4.0 | 0.00 | 0.00 | 0.00 | 63 | 1010.3 |
| 20260506102834 | 57 | 80 | 1.0 | 4.0 | 0.00 | 0.00 | 0.00 | 60 | 1010.3 |
| 20260506102335 | 56 | 317 | 1.0 | 4.0 | 0.00 | 0.00 | 0.00 | 62 | 1010.3 |
| 20260506101950 | 56 | 330 | 1.0 | 10.0 | 0.00 | 0.00 | 0.00 | 61 | 1010.3 |
| 20260506101911 | 56 | 303 | 1.0 | 4.0 | 0.00 | 0.00 | 0.00 | 63 | 1010.2 |
| 20260506100833 | 56 | 62 | 1.0 | 10.0 | 0.00 | 0.00 | 0.00 | 64 | 1010.2 |
| 20260506100329 | 56 | 288 | 0.0 | 3.0 | 0.00 | 0.00 | 0.00 | 69 | 1010.1 |
| 20260506095825 | 56 | 347 | 0.0 | 3.0 | 0.00 | 0.00 | 0.00 | 72 | 1010.1 |
| 20260506095320 | 55 | 291 | 1.0 | 6.0 | 0.00 | 0.00 | 0.00 | 72 | 1010.1 |
| 20260506094816 | 55 | 303 | 1.0 | 6.0 | 0.00 | 0.00 | 0.00 | 72 | 1010.1 |
| 20260506094614 | 55 | 310 | 1.0 | 4.0 | 0.00 | 0.00 | 0.00 | 74 | 1010.1 |
| 20260506093818 | 55 | 157 | 1.0 | 5.0 | 0.00 | 0.00 | 0.00 | 75 | 1010.0 |
| 20260506093316 | 55 | 304 | 1.0 | 6.0 | 0.00 | 0.00 | 0.00 | 76 | 1010.1 |
| 20260506092815 | 55 | 323 | 1.0 | 6.0 | 0.00 | 0.00 | 0.00 | 76 | 1010.1 |
| 20260506092316 | 55 | 294 | 1.0 | 6.0 | 0.00 | 0.00 | 0.00 | 77 | 1010.0 |
| 20260506091813 | 55 | 353 | 1.0 | 6.0 | 0.00 | 0.00 | 0.00 | 77 | 1010.1 |
| 20260506091606 | 55 | 306 | 1.0 | 3.0 | 0.00 | 0.00 | 0.00 | 78 | 1010.0 |
| 20260506090813 | 55 | 290 | 1.0 | 3.0 | 0.00 | 0.00 | 0.00 | 78 | 1009.9 |
| 20260506090314 | 55 | 108 | 0.0 | 3.0 | 0.00 | 0.00 | 0.00 | 78 | 1010.0 |
| 20260506085813 | 55 | 277 | 1.0 | 3.0 | 0.00 | 0.00 | 0.00 | 78 | 1009.9 |
| 20260506085315 | 55 | 120 | 1.0 | 4.0 | 0.00 | 0.00 | 0.00 | 78 | 1009.9 |
| 20260506085116 | 55 | 293 | 1.0 | 4.0 | 0.00 | 0.00 | 0.00 | 78 | 1010.0 |
| 20260506084313 | 55 | 304 | 1.0 | 3.0 | 0.00 | 0.00 | 0.00 | 77 | 1009.9 |
| 20260506084139 | 55 | 299 | 1.0 | 4.0 | 0.00 | 0.00 | 0.00 | 77 | 1009.9 |
| 20260506083307 | 55 | 297 | 1.0 | 4.0 | 0.00 | 0.00 | 0.00 | 76 | 1009.9 |
| 20260506082808 | 55 | 301 | 1.0 | 5.0 | 0.00 | 0.00 | 0.00 | 77 | 1010.0 |
| 20260506082307 | 55 | 299 | 1.0 | 6.0 | 0.00 | 0.00 | 0.00 | 77 | 1009.9 |
| 20260506081805 | 55 | 292 | 1.0 | 6.0 | 0.00 | 0.00 | 0.00 | 76 | 1009.8 |
| 20260506081305 | 55 | 342 | 0.0 | 3.0 | 0.00 | 0.00 | 0.00 | 76 | 1009.8 |
| 20260506081031 | 55 | 287 | 1.0 | 8.0 | 0.00 | 0.00 | 0.00 | 75 | 1009.9 |
| 20260506080314 | 55 | 74 | 1.0 | 8.0 | 0.00 | 0.00 | 0.00 | 74 | 1009.8 |
| 20260506073204 | 54 | 296 | 1.0 | 6.0 | 0.00 | 0.00 | 0.00 | 72 | 1009.6 |
| 20260506073200 | 54 | 91 | 1.0 | 6.0 | 0.00 | 0.00 | 0.00 | 72 | 1009.6 |
| 20260506071804 | 53 | 310 | 1.0 | 4.0 | 0.00 | 0.00 | 0.00 | 73 | 1009.6 |
| 20260506071310 | 53 | 296 | 0.0 | 3.0 | 0.00 | 0.00 | 0.00 | 74 | 1009.6 |
| 20260506070808 | 53 | 306 | 0.0 | 3.0 | 0.00 | 0.00 | 0.00 | 76 | 1009.6 |
| 20260506070306 | 53 | 288 | 0.0 | 2.0 | 0.00 | 0.00 | 0.00 | 77 | 1009.5 |